Location: Aultman
(40.9284°N, 81.4173°W)
Time: 09:30:41
(UTC+00:00)

Cosmos 2058 Rocket - Pass Details

Date: 24 January 2021
Orbit: 611 x 639 km, 82.5° (Epoch: 02 March)

Event Time Altitude Azimuth Distance (km) Brightness Sun altitude
Rises 23:31:05 0° 347° (NNW) 2,946 6.5 -11.0°
Reaches altitude 10° 23:33:22 10° 344° (NNW) 2,035 5.7 -11.5°
Maximum altitude 23:37:47 56° 266° (W) 761 3.9 -12.3°
Drops below altitude 10° 23:42:11 10° 188° (S) 2,021 6.0 -13.1°
Sets 23:44:26 0° 185° (S) 2,924 6.8 -13.5°
